www.pogodaiklimat.ru

Погода и климат >> Архив погоды >> Бразилия >> Пиауи >> Жилбуэс


ПОГОДА в Жилбуэсе

  • Прогноз погоды в Жилбуэсе
  • Монитор погоды в Жилбуэсе

АРХИВ ПОГОДЫ в Жилбуэсе

Время (UTC), дата Ветер
(напр.,м/с)
 
Видим.   Явления Облачность Т
(С)
Тd
(С)
f
(%)
Тe
(С)
Тes
(С)
Комфортность P
(гПа)
Po
(гПа)
Тmin
(С)
Tmax
(С)
R
(мм)
R24
(мм)
S
(см)
04 17.02 ЮЗ 1
{4}
н/о н/о +22.4 +21.0 92 +29 +29 очень
душно
1012.2 963.6 0.4
05 17.02 ЮВ 1
{2}
н/о н/о +22.4 +21.3 94 +29 +29 очень
душно
1011.4 962.9 0.2
06 17.02 В 2
{3}
н/о н/о +23.0 +21.6 92 +31 +31 очень
душно
1011.3 962.9
07 17.02 СВ 1
{6}
н/о н/о +20.5 +19.8 96 +26 +26 душно 1012.3 963.4 26
08 17.02 ЮЗ 1
{2}
н/о н/о +20.6 +20.0 96 +27 +27 душно 1012.5 963.6 3
09 17.02 Ю 1
{1}
н/о н/о +20.9 +20.7 99 +28 +28 очень
душно
1012.6 963.8 0.8
10 17.02 штиль 0
{1}
н/о н/о +21.7 +21.7 100 +28 +28 душно 1012.7 964.0
11 17.02 З 1
{1}
н/о н/о +23.7 +21.9 90 +31 +31 очень
душно
1013.7 965.3
12 17.02 СВ 1
{1}
н/о н/о +25.1 +20.8 77 +31 +31 очень
душно
1014.0 965.8
13 17.02 СЗ 1
{2}
н/о н/о +26.7 +20.2 68 +33 +33 очень
душно
1014.5 966.5
14 17.02 СЗ 1
{3}
н/о н/о +27.5 +21.3 69 +35 +35 очень
душно
1014.3 966.4
15 17.02 СЗ 1
{3}
н/о н/о +27.9 +21.8 69 +36 +36 очень
душно
1013.2 965.5
16 17.02 С 1
{3}
н/о н/о +29.4 +22.6 67 +39 +39 очень
душно
1011.6 964.2
17 17.02 С 2
{3}
н/о н/о +25.6 +22.3 82 +33 +33 очень
душно
1011.7 963.7
18 17.02 З 2
{3}
н/о н/о +24.4 +22.3 88 +32 +32 очень
душно
1011.6 963.4
19 17.02 З 1
{3}
н/о н/о +24.6 +22.1 86 +32 +32 очень
душно
1010.7 962.6
20 17.02 З 1
{3}
н/о н/о +24.8 +22.7 88 +33 +33 очень
душно
1010.0 961.9
21 17.02 С 1
{2}
н/о н/о +24.8 +22.6 88 +33 +33 очень
душно
1011.5 963.4
22 17.02 штиль 0
{1}
н/о н/о +23.9 +22.6 92 +31 +31 очень
душно
1012.0 963.7
23 17.02 В 1
{1}
н/о н/о +24.0 +22.9 94 +32 +32 очень
душно
1012.9 964.6
00 18.02 В 1
{2}
н/о н/о +24.2 +22.8 92 +32 +32 очень
душно
1014.4 966.0
01 18.02 СВ 1
{2}
н/о н/о +24.3 +23.0 92 +32 +32 очень
душно
1015.0 966.6
02 18.02 В 1
{2}
н/о н/о +24.0 +22.9 94 +32 +32 очень
душно
1014.8 966.4
03 18.02 В 1
{2}
н/о н/о +23.5 +21.7 90 +30 +30 очень
душно
1014.7 966.2
04 18.02 СВ 1
{2}
н/о н/о +23.3 +21.4 89 +31 +31 очень
душно
1014.7 966.2
05 18.02 В 1
{2}
н/о н/о +23.1 +22.0 94 +31 +31 очень
душно
1013.5 965.0 0.6
06 18.02 В 1
{2}
н/о н/о +22.8 +21.9 95 +31 +31 очень
душно
1013.3 964.8 0.6
07 18.02 В 1
{2}
н/о н/о +22.4 +21.4 94 +29 +29 очень
душно
1013.2 964.6
08 18.02 СВ 1
{2}
н/о н/о +22.4 +21.5 95 +30 +30 очень
душно
1013.6 965.0 0.2
09 18.02 ЮВ 1
{2}
н/о н/о +22.6 +21.4 93 +30 +30 очень
душно
1014.1 965.5
10 18.02 ЮВ 1
{2}
н/о н/о +22.7 +21.3 92 +30 +30 очень
душно
1014.1 965.5
11 18.02 Ю 1
{2}
н/о н/о +24.1 +21.1 83 +30 +30 очень
душно
1014.1 965.7
12 18.02 ЮЗ 1
{2}
н/о н/о +25.2 +21.1 78 +32 +32 очень
душно
1014.7 966.5
13 18.02 ЮВ 1
{2}
н/о н/о +26.5 +21.0 72 +33 +33 очень
душно
1015.4 967.3
14 18.02 В 1
{2}
н/о н/о +26.6 +20.7 70 +33 +33 очень
душно
1015.8 967.7
15 18.02 СВ 1
{2}
н/о н/о +27.2 +21.2 70 +34 +34 очень
душно
1015.7 967.7
16 18.02 СВ 1
{2}
н/о н/о +26.6 +21.0 71 +33 +33 очень
душно
1015.0 967.0
17 18.02 С 1
{2}
н/о н/о +26.2 +21.5 75 +33 +33 очень
душно
1013.8 965.8
18 18.02 Ю 1
{2}
н/о н/о +27.6 +20.9 67 +35 +35 очень
душно
1012.2 964.5
19 18.02 СЗ 1
{1}
н/о н/о +27.4 +20.0 64 +34 +34 очень
душно
1011.7 964.0
20 18.02 Ю 1
{1}
н/о н/о +27.5 +20.6 66 +34 +34 очень
душно
1011.3 963.6
21 18.02 В 1
{2}
н/о н/о +26.9 +20.9 70 +34 +34 очень
душно
1011.1 963.3
22 18.02 В 1
{1}
н/о н/о +25.3 +21.9 81 +33 +33 очень
душно
1012.3 964.2
23 18.02 ЮВ 1
{1}
н/о н/о +24.8 +21.9 84 +32 +32 очень
душно
1013.1 964.9
00 19.02 В 1
{1}
н/о н/о +24.0 +22.6 92 +31 +31 очень
душно
1014.0 965.6
01 19.02 В 1
{1}
н/о н/о +24.1 +22.3 90 +31 +31 очень
душно
1014.4 966.0
02 19.02 В 1
{1}
н/о н/о +23.9 +22.6 92 +31 +31 очень
душно
1014.7 966.3
03 19.02 Ю 1
{1}
н/о н/о +23.5 +22.5 94 +31 +31 очень
душно
1014.5 966.0
04 19.02 штиль 0
{1}
н/о н/о +23.0 +22.0 94 +31 +31 очень
душно
1013.9 965.4
05 19.02 ЮВ 1
{1}
н/о н/о +22.7 +21.8 95 +30 +30 очень
душно
1013.6 965.0
06 19.02 СЗ 1
{1}
н/о н/о +22.7 +21.9 95 +30 +30 очень
душно
1013.2 964.6
07 19.02 В 1
{1}
н/о н/о +22.2 +21.5 96 +29 +29 очень
душно
1013.2 964.6
08 19.02 В 1
{1}
н/о н/о +22.0 +21.3 96 +29 +29 очень
душно
1013.4 964.7
09 19.02 Ю 1
{1}
н/о н/о +22.2 +21.5 96 +29 +29 очень
душно
1014.2 965.5
10 19.02 штиль 0
{1}
н/о н/о +23.3 +22.6 96 +32 +32 очень
душно
1014.5 966.0
11 19.02 ЮЗ 1
{1}
н/о н/о +25.6 +23.1 86 +34 +34 очень
душно
1014.4 966.2
12 19.02 ЮЗ 1
{2}
н/о н/о +27.8 +22.5 73 +37 +37 очень
душно
1014.4 966.6
13 19.02 ЮВ 1
{2}
н/о н/о +29.2 +21.7 64 +37 +37 очень
душно
1014.3 966.7
14 19.02 В 2
{3}
н/о н/о +30.4 +20.8 57 +38 +38 очень
душно
1013.7 966.3
15 19.02 В 2
{4}
н/о н/о +31.2 +20.9 54 +38 +38 очень
душно
1012.6 965.4
16 19.02 В 2
{3}
н/о н/о +31.3 +20.1 51 +38 +38 очень
душно
1011.2 964.1
17 19.02 В 1
{3}
н/о н/о +31.0 +21.5 57 +39 +39 очень
душно
1010.0 962.9
18 19.02 В 1
{3}
н/о н/о +32.3 +21.0 51 +40 +40 очень
душно
1008.8 961.9
19 19.02 ЮВ 1
{2}
н/о н/о +31.6 +21.3 54 +39 +39 очень
душно
1007.8 960.9
20 19.02
{6}
н/о н/о +25.0 +21.7 82 1008.7 960.7 10
21 19.02 ЮЗ 1
{3}
н/о н/о +25.5 +23.4 88 +34 +34 очень
душно
1009.6 961.7
22 19.02 З 1
{2}
н/о н/о +25.1 +23.4 90 +34 +34 очень
душно
1010.8 962.7
23 19.02 ЮЗ 1
{2}
н/о н/о +24.5 +23.0 91 +32 +32 очень
душно
1011.3 963.1
00 20.02 штиль 0
{1}
н/о н/о +24.1 +23.0 94 +32 +32 очень
душно
1011.9 963.6
01 20.02 СЗ 1
{1}
н/о н/о +24.5 +23.6 95 +33 +33 очень
душно
1012.2 964.0
02 20.02 штиль 0
{1}
н/о н/о +23.9 +23.0 95 +32 +32 очень
душно
1012.4 964.1
03 20.02 З 1
{1}
н/о н/о +24.0 +23.2 95 +32 +32 очень
душно
1012.5 964.2
04 20.02 З 1
{1}
н/о н/о +23.5 +22.7 95 +31 +31 очень
душно
1012.5 964.1
05 20.02 ЮЗ 1
{1}
н/о н/о +23.3 +22.6 96 +32 +32 очень
душно
1011.8 963.4
06 20.02 З 1
{1}
н/о н/о +23.3 +22.6 96 +32 +32 очень
душно
1011.5 963.1
07 20.02 ЮВ 1
{1}
н/о н/о +23.7 +23.0 96 +31 +31 очень
душно
1011.6 963.3
08 20.02 ЮЗ 1
{2}
н/о н/о +23.5 +22.6 95 +31 +31 очень
душно
1011.9 963.5
09 20.02 штиль 0
{1}
н/о н/о +23.2 +22.4 95 +32 +32 очень
душно
1012.3 963.9
10 20.02 ЮВ 2
{3}
н/о н/о +23.8 +23.0 95 +32 +32 очень
душно
1013.0 964.6
11 20.02 СВ 1
{3}
н/о н/о +23.7 +22.9 95 +31 +31 очень
душно
1014.0 965.6 3
12 20.02 ЮВ 1
{2}
н/о н/о +24.7 +22.9 90 +33 +33 очень
душно
1014.5 966.2
13 20.02 ЮЗ 1
{2}
н/о н/о +26.5 +22.7 80 +35 +35 очень
душно
1014.1 966.1
14 20.02 З 1
{2}
н/о н/о +27.6 +22.4 73 +36 +36 очень
душно
1013.3 965.5
15 20.02 З 1
{2}
н/о н/о +28.9 +22.8 70 +38 +38 очень
душно
1012.6 965.0
16 20.02 СЗ 1
{2}
н/о н/о +29.1 +22.2 66 +38 +38 очень
душно
1010.9 963.5
17 20.02 СЗ 1
{2}
н/о н/о +30.2 +23.1 66 +40 +40 очень
душно
1009.5 962.3
18 20.02 СВ 1
{2}
н/о н/о +31.9 +22.3 57 +41 +41 опасность
перегрева
1008.0 961.1
19 20.02 СВ 1
{2}
н/о н/о +31.6 +20.8 53 +39 +39 очень
душно
1007.1 960.2
20 20.02 ЮВ 1
{2}
н/о н/о +30.5 +21.6 59 +39 +39 очень
душно
1006.8 959.8
21 20.02 ЮВ 1
{1}
н/о н/о +28.6 +22.6 70 +38 +38 очень
душно
1007.3 959.9
22 20.02 В 1
{1}
н/о н/о +26.9 +23.5 82 +37 +37 очень
душно
1008.4 960.7
23 20.02 СЗ 1
{1}
н/о н/о +25.6 +23.1 86 +34 +34 очень
душно
1009.3 961.4
00 21.02 В 1
{1}
н/о н/о +24.5 +23.3 93 +33 +33 очень
душно
1010.0 961.9
01 21.02 В 1
{1}
н/о н/о +24.3 +23.2 94 +33 +33 очень
душно
1010.8 962.6
02 21.02 В 1
{1}
н/о н/о +24.4 +22.2 88 +32 +32 очень
душно
1010.6 962.4
03 21.02 ЮВ 1
{1}
н/о н/о +23.4 +22.3 94 +32 +32 очень
душно
1010.8 962.5
04 21.02 В 1
{2}
н/о н/о +24.1 +22.5 91 +32 +32 очень
душно
1010.1 961.9
05 21.02 Ю 1
{1}
н/о н/о +23.5 +22.4 94 +31 +31 очень
душно
1009.9 961.6
06 21.02 З 1
{1}
н/о н/о +23.1 +22.3 95 +32 +32 очень
душно
1009.7 961.4 0.2
07 21.02 З 1
{1}
н/о н/о +22.7 +21.9 95 +30 +30 очень
душно
1010.2 961.8
08 21.02 В 1
{1}
н/о н/о +22.5 +21.7 95 +30 +30 очень
душно
1011.0 962.5
09 21.02 ЮВ 1
{1}
н/о н/о +22.0 +21.3 96 +29 +29 очень
душно
1011.9 963.3
10 21.02 В 1
{1}
н/о н/о +24.5 +23.4 94 +33 +33 очень
душно
1011.7 963.5
11 21.02 В 1
{1}
н/о н/о +27.8 +22.5 73 +37 +37 очень
душно
1011.9 964.2
12 21.02 З 1
{2}
н/о н/о +29.0 +22.5 68 +38 +38 очень
душно
1012.2 964.7
13 21.02 С 1
{2}
н/о н/о +29.4 +23.2 69 +39 +39 очень
душно
1012.5 965.0
14 21.02 В 1
{2}
н/о н/о +30.6 +21.8 59 +39 +39 очень
душно
1012.3 965.0
15 21.02 СВ 1
{2}
н/о н/о +31.2 +22.1 58 +40 +40 очень
душно
1011.3 964.2
16 21.02 ЮВ 1
{2}
н/о н/о +32.6 +22.1 54 +41 +41 опасность
перегрева
1010.1 963.2
17 21.02 Ю 1
{3}
н/о н/о +33.2 +22.0 52 +42 +42 опасность
перегрева
1009.1 962.4
18 21.02 ЮВ 2
{3}
н/о н/о +33.0 +19.0 44 +38 +38 очень
душно
1008.1 961.4
19 21.02 В 1
{3}
н/о н/о +32.7 +19.5 46 +38 +38 очень
душно
1007.9 961.1
20 21.02 ЮВ 1
{2}
н/о н/о +31.3 +20.3 52 +38 +38 очень
душно
1007.2 960.3
21 21.02 ЮВ 1
{2}
н/о н/о +30.3 +21.0 58 +38 +38 очень
душно
1008.4 961.3
22 21.02 СЗ 1
{1}
н/о н/о +29.3 +22.0 65 +38 +38 очень
душно
1009.1 961.8
23 21.02 З 2
{3}
н/о н/о +27.6 +21.1 68 +35 +35 очень
душно
1010.4 962.7
00 22.02 В 1
{7}
н/о н/о +21.7 +19.3 86 +27 +27 душно 1012.9 964.2 4
02 22.02 С 1
{5}
н/о н/о +22.4 +20.7 90 +29 +29 очень
душно
1012.9 964.3 0.2
03 22.02 ЮЗ 1
{2}
н/о н/о +22.5 +21.5 94 +30 +30 очень
душно
1013.0 964.4
04 22.02 СЗ 1
{2}
н/о н/о +22.4 +21.5 95 +30 +30 очень
душно
1012.2 963.6
05 22.02 штиль 0
{1}
н/о н/о +22.0 +21.2 95 +28 +28 душно 1012.1 963.5
06 22.02 штиль 0
{1}
н/о н/о +22.0 +21.2 95 +28 +28 душно 1012.5 963.9
07 22.02 Ю 1
{1}
н/о н/о +22.1 +21.3 95 +29 +29 очень
душно
1012.4 963.8
09 22.02 В 1
{1}
н/о н/о +21.8 +21.1 96 +28 +28 душно 1013.4 964.7
10 22.02 В 1
{1}
н/о н/о +24.2 +22.3 89 +31 +31 очень
душно
1013.3 965.0
11 22.02 ЮВ 1
{1}
н/о н/о +25.7 +21.3 77 +33 +33 очень
душно
1014.1 966.0
12 22.02 В 1
{2}
н/о н/о +26.2 +21.5 75 +33 +33 очень
душно
1014.4 966.3
13 22.02 В 1
{2}
н/о н/о +28.0 +22.3 71 +37 +37 очень
душно
1014.3 966.5
20 22.02 СВ 1
{3}
н/о н/о +30.8 +20.3 54 +38 +38 очень
душно
1008.7 961.6
22 22.02 В 1
{2}
н/о н/о +27.5 +21.1 68 +35 +35 очень
душно
1010.7 963.0
23 22.02 СВ 1
{2}
н/о н/о +26.7 +20.7 70 +33 +33 очень
душно
1011.1 963.3
01 23.02 С 1
{7}
н/о н/о +21.8 +19.9 89 +27 +27 душно 1014.3 965.5 3
02 23.02 З 1
{2}
н/о н/о +21.7 +20.4 92 +27 +27 душно 1014.5 965.7
03 23.02 В 2
{5}
н/о н/о +21.3 +19.9 92 +26 +26 душно 1016.2 967.3 8
04 23.02 В 1
{4}
н/о н/о +20.6 +19.8 95 +26 +26 душно 1013.9 965.0 6
05 23.02 В 1
{1}
н/о н/о +20.7 +20.0 96 +27 +27 душно 1013.2 964.3
06 23.02 ЮВ 1
{1}
н/о н/о +20.4 +19.7 96 +26 +26 душно 1012.7 963.8
07 23.02 штиль 0
{1}
н/о н/о +20.9 +20.2 96 +26 +26 душно 1012.7 963.9
08 23.02 С 1
{1}
н/о н/о +20.8 +20.2 96 +27 +27 душно 1013.1 964.2
09 23.02 СВ 1
{1}
н/о н/о +20.4 +19.8 96 +26 +26 душно 1013.4 964.5
10 23.02 СВ 1
{1}
н/о н/о +22.1 +21.5 96 +29 +29 очень
душно
1013.6 964.9
11 23.02 ЮЗ 1
{1}
н/о н/о +25.1 +22.1 83 +32 +32 очень
душно
1013.8 965.6
12 23.02
{2}
н/о н/о +26.5 +21.0 72 1014.1 966.1
13 23.02 ЮВ 1
{1}
н/о н/о +27.4 +21.1 69 +35 +35 очень
душно
1013.8 966.0
14 23.02 СВ 1
{2}
н/о н/о +29.2 +22.2 66 +38 +38 очень
душно
1013.1 965.6
15 23.02 СВ 1
{2}
н/о н/о +29.7 +20.1 56 +36 +36 очень
душно
1012.6 965.2
16 23.02 В 1
{3}
н/о н/о +31.0 +21.2 56 +39 +39 очень
душно
1010.9 963.7
17 23.02 ЮВ 1
{3}
н/о н/о +31.6 +20.4 52 +39 +39 очень
душно
1009.1 962.1
18 23.02 В 1
{3}
н/о н/о +31.7 +20.5 52 +39 +39 очень
душно
1008.2 961.3
19 23.02 СВ 2
{3}
н/о н/о +31.6 +19.9 50 +38 +38 очень
душно
1007.0 960.1
21 23.02 СЗ 1
{4}
н/о н/о +27.7 +22.2 72 +36 +36 очень
душно
1008.3 960.8
00 24.02 Ю 1
{4}
н/о н/о +23.2 +19.2 78 +30 +30 очень
душно
1011.8 963.4
01 24.02 З 1
{2}
н/о н/о +23.0 +19.9 83 +30 +30 очень
душно
1012.5 964.0

 

Местоположение метеостанции Жилбуэс (Пиауи, Бразилия): широта -9.87 долгота -45.35 высота над уровнем моря 427 м.

В архиве по умолчанию представлена погода в Жилбуэсе за последнюю неделю. Архивные данные за месяц целиком и за предыдущие месяцы, начиная с января 2011 года, Вы можете получить, выбрав интересующий диапазон дат из раскрывающегося списка и нажав кнопку "Ввод!".


*Определитесь, кто Вы:
робот инопланетянин человек

Внимание! Время в таблицах - всемирное. Для получения местного времени необходимо прибавить поправку, которая равна -3 ч.

Смотрите также архив погоды в соседних городах и на ближайших метеорологических станциях:

Погода в Альто-Парнайбе (Пиауи, Бразилия) (107 км)
Погода в Бон-Жезусе (Пиауи, Бразилия) (142 км)
Погода в Санта-Рита-де-Кассии (Баия, Бразилия) (156 км)
Погода в Буритираме (Баия, Бразилия) (209 км)
Погода в Альворада-ду-Гургее (Пиауи, Бразилия) (227 км)
Погода в Караколе (Пиауи, Бразилия) (232 км)
Погода в Дианополисе (Токантинс, Бразилия) (253 км)
Погода в Баррейрасе (Баия, Бразилия) (256 км)
Погода в Баррейрасе (Баия, Бразилия) (256 км)
Погода в Луис-Эдуарду-Магальяйнсе (Баия, Бразилия) (259 км)

Пояснения к столбцам:

Ветер - указаны скорость ветра в м/с - средняя за 10 мин, порывы в срок и между сроками (в фигурных скобках) и направление, откуда дует ветер: С - северный, СВ - северо-восточный, В - восточный, ЮВ - юго-восточный, Ю - южный, ЮЗ - юго-западный, З - западный, СЗ - северо-западный.
Видимость - горизонтальная дальность видимости в метрах или километрах. При видимости от 1 до 10 км при отсутствии осадков обычно наблюдается дымка, при ухудшении видимости до 1 км и менее - туман. В сухую погоду видимость может ухудшаться дымом, пылью или мглою.
Явления - указаны атмосферные явления, наблюдавшиеся в срок или в последний час перед сроком; фигурными скобками обозначены явления, наблюдавшиеся между сроками (за 1-3 часа до срока); квадратными скобками обозначены град или гололедные отложения с указанием их диаметра в мм.
Облачность - указаны через наклонную черту общая и нижняя облачность в баллах и высота нижней границы облаков в метрах; квадратными скобками обозначены формы облаков: Ci - перистые, Cs - перисто-слоистые, Cc - перисто-кучевые, Ac - высококучевые, As - высокослоистые, Sc - слоисто-кучевые, Ns - слоисто-дождевые, Cu - кучевые, Cb - кучево-дождевые. Подробнее классификацию облаков см. в Атласе облаков (PDF).
T - Температура воздуха - температура, измеренная на высоте 2 м над землей.
Td - Температура точки росы - температура, при понижении до которой содержащийся в воздухе водяной пар достигнет насыщения.
f - Относительная влажность воздуха - влажноcть воздуха, измеренная на высоте 2 м над землей.
Te - Эффективная температура - температура, которую ощущает одетый по сезону человек в тени. Характеристика душности погоды. При расчете учитывается влияние влажности воздуха и скорости ветра на теплоощущения человека.
Tes - Эффективная температура на солнце - температура, которую ощущает человек, с поправкой на солнечный нагрев. Характеристика знойности погоды. Зависит от высоты солнца над горизонтом, облачности и скорости ветра. Ночью, в пасмурную погоду, а также при ветре 12 м/с и более поправка равна нулю.
P - Атмосферное давление - приведенное к уровню моря атмосферное давление.
Po - Атмосферное давление - измеренное на уровне метеостанции атмосферное давление.
Tmin - Минимальная температура - минимум температуры воздуха на высоте 2 м над землей.
Tmax - Максимальная температура - максимум температуры воздуха на высоте 2 м над землей.
R - Количество осадков - Количество выпавших осадков за период времени, мм. При наведении курсора мыши на число - период времени, за который выпало указанное количество осадков.
R24 - Количество осадков - Количество выпавших осадков за 24 часа, мм.
S - Снежный покров - Высота снежного покрова, см. При наведении курсора мыши на число - состояние снежного покрова и степень покрытия местности в баллах.